| time (UTC) | temp C | wind direction | speed KPH | gust KPH | rain 1hr cm | rain 24hr cm | rain mn cm | humidity % | barometer mb |
| 20260506233241 | 5 | 217 | 0.0 | 0.0 | 0.00 | 0.00 | 0.00 | 94 | 1012.6 |
| 20260506232737 | 5 | 217 | 0.0 | 0.0 | 0.00 | 0.00 | 0.00 | 95 | 1012.4 |
| 20260506232234 | 5 | 217 | 0.0 | 0.0 | 0.00 | 0.00 | 0.00 | 94 | 1012.4 |
| 20260506231734 | 5 | 217 | 0.0 | 0.0 | 0.00 | 0.00 | 0.00 | 94 | 1012.4 |
| 20260506231248 | 5 | 217 | 0.0 | 0.0 | 0.00 | 0.00 | 0.00 | 93 | 1012.2 |
| 20260506230745 | 5 | 220 | 0.0 | 0.0 | 0.00 | 0.00 | 0.00 | 92 | 1012.2 |
| 20260506230241 | 5 | 111 | 0.0 | 0.0 | 0.00 | 0.00 | 0.00 | 92 | 1012.2 |
| 20260506225740 | 5 | 101 | 0.0 | 0.0 | 0.00 | 0.00 | 0.00 | 94 | 1012.2 |
| 20260506225237 | 4 | 100 | 0.0 | 0.0 | 0.00 | 0.00 | 0.00 | 94 | 1012.2 |
| 20260506224741 | 5 | 108 | 0.0 | 0.0 | 0.00 | 0.00 | 0.00 | 92 | 1012.2 |
| 20260506224241 | 5 | 203 | 0.0 | 0.0 | 0.00 | 0.00 | 0.00 | 91 | 1012.2 |
| 20260506223740 | 5 | 205 | 0.0 | 0.0 | 0.00 | 0.00 | 0.00 | 90 | 1012.2 |
| 20260506223237 | 5 | 115 | 0.0 | 0.0 | 0.00 | 0.00 | 0.00 | 90 | 1012.2 |
| 20260506222753 | 5 | 110 | 0.0 | 0.0 | 0.00 | 0.00 | 0.00 | 92 | 1012.3 |
| 20260506222249 | 5 | 101 | 0.0 | 0.0 | 0.00 | 0.00 | 0.00 | 93 | 1012.3 |
| 20260506221747 | 5 | 103 | 0.0 | 0.0 | 0.00 | 0.00 | 0.00 | 93 | 1012.3 |
| 20260506221247 | 5 | 103 | 0.0 | 0.0 | 0.00 | 0.00 | 0.00 | 92 | 1012.3 |
| 20260506220746 | 5 | 133 | 0.0 | 0.0 | 0.00 | 0.00 | 0.00 | 92 | 1012.3 |
| 20260506220242 | 5 | 98 | 0.0 | 0.0 | 0.00 | 0.00 | 0.00 | 92 | 1012.3 |
| 20260506215738 | 5 | 94 | 0.0 | 0.0 | 0.00 | 0.00 | 2.46 | 93 | 1012.3 |
| 20260506215235 | 5 | 94 | 0.0 | 0.0 | 0.00 | 0.00 | 2.46 | 93 | 1012.3 |
| 20260506214749 | 5 | 94 | 0.0 | 0.0 | 0.00 | 0.00 | 2.46 | 93 | 1012.3 |
| 20260506214245 | 5 | 94 | 0.0 | 0.0 | 0.00 | 0.00 | 2.46 | 92 | 1012.4 |
| 20260506213740 | 5 | 94 | 0.0 | 0.0 | 0.00 | 0.00 | 2.46 | 92 | 1012.4 |
| 20260506213241 | 5 | 94 | 0.0 | 0.0 | 0.00 | 0.00 | 2.46 | 92 | 1012.4 |
| 20260506212741 | 5 | 101 | 0.0 | 0.0 | 0.00 | 0.00 | 2.44 | 93 | 1011.6 |
| 20260506212241 | 5 | 120 | 0.0 | 0.0 | 0.00 | 0.00 | 2.41 | 96 | 1011.6 |
| 20260506211741 | 5 | 229 | 0.0 | 0.0 | 0.00 | 0.00 | 2.41 | 96 | 1011.6 |
| 20260506211241 | 5 | 229 | 0.0 | 0.0 | 0.00 | 0.00 | 2.41 | 97 | 1011.5 |
| 20260506210741 | 4 | 229 | 0.0 | 0.0 | 0.00 | 0.00 | 2.41 | 97 | 1011.5 |
| 20260506210240 | 4 | 229 | 0.0 | 0.0 | 0.00 | 0.00 | 2.41 | 97 | 1011.5 |
| 20260506205737 | 4 | 229 | 0.0 | 0.0 | 0.00 | 0.00 | 2.41 | 97 | 1011.6 |
| 20260506205237 | 4 | 229 | 0.0 | 0.0 | 0.00 | 0.00 | 2.41 | 97 | 1011.6 |
| 20260506204736 | 4 | 229 | 0.0 | 0.0 | 0.00 | 0.00 | 2.41 | 97 | 1011.6 |
| 20260506204252 | 4 | 229 | 0.0 | 0.0 | 0.00 | 0.00 | 2.41 | 98 | 1011.9 |
| 20260506203748 | 4 | 229 | 0.0 | 0.0 | 0.00 | 0.00 | 2.41 | 98 | 1011.9 |
| 20260506203245 | 4 | 232 | 0.0 | 0.0 | 0.00 | 0.00 | 2.41 | 97 | 1011.9 |
| 20260506202743 | 4 | 233 | 0.0 | 0.0 | 0.00 | 0.00 | 2.41 | 98 | 1011.8 |
| 20260506202244 | 4 | 233 | 0.0 | 0.0 | 0.00 | 0.00 | 2.41 | 97 | 1011.8 |
| 20260506201744 | 4 | 231 | 0.0 | 0.0 | 0.00 | 0.00 | 2.41 | 98 | 1011.8 |
| 20260506201242 | 4 | 231 | 0.0 | 0.0 | 0.00 | 0.00 | 2.41 | 98 | 1011.4 |
| 20260506200738 | 4 | 244 | 0.0 | 0.0 | 0.00 | 0.00 | 2.41 | 97 | 1011.4 |
| 20260506200230 | 4 | 238 | 0.0 | 0.0 | 0.00 | 0.00 | 2.41 | 98 | 1011.4 |
| 20260506195750 | 4 | 108 | 0.0 | 0.0 | 0.00 | 0.00 | 2.41 | 98 | 1011.2 |
| 20260506195246 | 4 | 99 | 0.0 | 0.0 | 0.00 | 0.00 | 2.41 | 98 | 1011.2 |
| 20260506194745 | 4 | 94 | 0.0 | 0.0 | 0.00 | 0.00 | 2.41 | 98 | 1011.2 |
| 20260506194235 | 4 | 99 | 0.0 | 0.0 | 0.00 | 0.00 | 2.41 | 98 | 1011.0 |
| 20260506193734 | 4 | 94 | 0.0 | 0.0 | 0.00 | 0.00 | 2.41 | 98 | 1011.0 |
| 20260506193250 | 4 | 96 | 0.0 | 0.0 | 0.00 | 0.00 | 2.41 | 98 | 1011.0 |
| 20260506192746 | 4 | 96 | 0.0 | 0.0 | 0.00 | 0.00 | 2.41 | 98 | 1010.7 |
| 20260506192242 | 4 | 111 | 0.0 | 0.0 | 0.00 | 0.00 | 2.41 | 98 | 1010.7 |
| 20260506191741 | 4 | 107 | 0.0 | 0.0 | 0.00 | 0.00 | 2.39 | 98 | 1010.7 |
| 20260506191238 | 4 | 105 | 0.0 | 0.0 | 0.00 | 0.00 | 2.39 | 98 | 1010.5 |
| 20260506190741 | 4 | 98 | 0.0 | 0.0 | 0.00 | 0.00 | 2.39 | 98 | 1010.5 |
| 20260506190241 | 4 | 104 | 0.0 | 0.0 | 0.00 | 0.00 | 2.39 | 97 | 1010.5 |
| 20260506185741 | 4 | 97 | 0.0 | 0.0 | 0.00 | 0.00 | 2.39 | 97 | 1010.3 |
| 20260506185241 | 4 | 99 | 0.0 | 0.0 | 0.00 | 0.00 | 2.39 | 97 | 1010.3 |
| 20260506184743 | 4 | 108 | 0.0 | 0.0 | 0.00 | 0.00 | 2.39 | 97 | 1010.3 |
| 20260506184239 | 4 | 104 | 0.0 | 0.0 | 0.00 | 0.00 | 2.39 | 97 | 1010.3 |
| 20260506183735 | 4 | 99 | 0.0 | 0.0 | 0.00 | 0.00 | 2.39 | 97 | 1010.3 |
| 20260506183250 | 4 | 111 | 0.0 | 0.0 | 0.00 | 0.00 | 2.39 | 96 | 1010.3 |
| 20260506182747 | 5 | 109 | 0.0 | 0.0 | 0.00 | 0.00 | 2.39 | 96 | 1010.3 |
| 20260506182247 | 5 | 95 | 0.0 | 0.0 | 0.00 | 0.00 | 2.39 | 95 | 1010.3 |
| 20260506181746 | 5 | 102 | 0.0 | 0.0 | 0.00 | 0.00 | 2.39 | 95 | 1010.3 |
| 20260506181246 | 5 | 98 | 0.0 | 0.0 | 0.00 | 0.00 | 2.39 | 92 | 1011.1 |
| 20260506180745 | 5 | 103 | 0.0 | 0.0 | 0.00 | 0.00 | 2.36 | 91 | 1011.1 |
| 20260506180241 | 5 | 122 | 0.0 | 0.0 | 0.00 | 0.00 | 2.36 | 92 | 1011.1 |
| 20260506175741 | 5 | 66 | 0.0 | 0.0 | 0.00 | 0.00 | 2.36 | 91 | 1011.0 |
| 20260506175240 | 5 | 175 | 0.0 | 0.0 | 0.00 | 0.00 | 2.34 | 93 | 1011.0 |
| 20260506174736 | 5 | 195 | 0.0 | 0.0 | 0.00 | 0.00 | 2.31 | 92 | 1011.0 |
| 20260506174232 | 6 | 235 | 0.0 | 0.0 | 0.00 | 0.00 | 2.29 | 89 | 1011.1 |
| 20260506173732 | 5 | 25 | 0.0 | 0.0 | 0.00 | 0.00 | 2.26 | 91 | 1011.1 |
| 20260506173231 | 5 | 113 | 0.0 | 0.0 | 0.00 | 0.00 | 2.21 | 92 | 1011.1 |
| 20260506172750 | 5 | 114 | 0.0 | 0.0 | 0.00 | 0.00 | 2.18 | 91 | 1010.9 |
| 20260506172246 | 6 | 18 | 0.0 | 0.0 | 0.00 | 0.00 | 2.11 | 90 | 1010.9 |
| 20260506171742 | 6 | 18 | 0.0 | 0.0 | 0.00 | 0.00 | 2.11 | 88 | 1010.9 |
| 20260506171239 | 5 | 57 | 0.0 | 0.0 | 0.00 | 0.00 | 2.03 | 92 | 1010.8 |
| 20260506170739 | 5 | 360 | 0.0 | 0.0 | 0.00 | 0.00 | 2.01 | 94 | 1010.8 |
| 20260506170238 | 5 | 327 | 0.0 | 0.0 | 0.00 | 0.00 | 1.98 | 94 | 1010.8 |
| 20260506165738 | 5 | 302 | 0.0 | 0.0 | 0.00 | 0.00 | 1.98 | 93 | 1010.2 |
| 20260506165237 | 5 | 244 | 0.0 | 0.0 | 0.00 | 0.00 | 1.96 | 94 | 1010.2 |
| 20260506164737 | 5 | 227 | 0.0 | 0.0 | 0.00 | 0.00 | 1.93 | 94 | 1010.2 |
| 20260506164233 | 5 | 243 | 0.0 | 0.0 | 0.00 | 0.00 | 1.91 | 93 | 1009.5 |
| 20260506163749 | 6 | 259 | 0.0 | 0.0 | 0.00 | 0.00 | 1.85 | 93 | 1009.5 |
| 20260506163248 | 7 | 246 | 0.0 | 0.0 | 0.00 | 0.00 | 1.80 | 93 | 1009.5 |
| 20260506162745 | 7 | 255 | 0.0 | 0.0 | 0.00 | 0.00 | 1.75 | 92 | 1009.3 |
| 20260506162245 | 7 | 89 | 0.0 | 0.0 | 0.00 | 0.00 | 1.70 | 97 | 1009.3 |
| 20260506161744 | 7 | 228 | 0.0 | 0.0 | 0.00 | 0.00 | 1.65 | 97 | 1009.3 |
| 20260506161240 | 7 | 25 | 0.0 | 0.0 | 0.00 | 0.00 | 1.65 | 97 | 1009.2 |
| 20260506160747 | 7 | 52 | 0.0 | 0.0 | 0.00 | 0.00 | 1.63 | 97 | 1009.2 |
| 20260506160243 | 7 | 108 | 0.0 | 0.0 | 0.00 | 0.00 | 1.63 | 97 | 1009.2 |
| 20260506155739 | 7 | 98 | 0.0 | 0.0 | 0.00 | 0.00 | 1.63 | 97 | 1009.3 |
| 20260506155235 | 7 | 138 | 0.0 | 0.0 | 0.00 | 0.00 | 1.63 | 97 | 1009.3 |
| 20260506154734 | 7 | 90 | 0.0 | 0.0 | 0.00 | 0.00 | 1.63 | 97 | 1009.3 |
| 20260506154230 | 7 | 124 | 0.0 | 0.0 | 0.00 | 0.00 | 1.63 | 97 | 1009.4 |
| 20260506153748 | 7 | 92 | 0.0 | 0.0 | 0.00 | 0.00 | 1.63 | 97 | 1009.4 |
| 20260506153244 | 7 | 79 | 0.0 | 0.0 | 0.00 | 0.00 | 1.63 | 97 | 1009.4 |
| 20260506152744 | 7 | 78 | 0.0 | 0.0 | 0.00 | 0.00 | 1.63 | 97 | 1009.4 |
| 20260506152241 | 7 | 64 | 0.0 | 0.0 | 0.00 | 0.00 | 1.63 | 97 | 1009.4 |
| 20260506151740 | 7 | 110 | 0.0 | 0.0 | 0.00 | 0.00 | 1.60 | 97 | 1009.4 |
| 20260506151237 | 7 | 82 | 0.0 | 0.0 | 0.00 | 0.00 | 1.60 | 97 | 1009.6 |
| 20260506150737 | 7 | 92 | 0.0 | 0.0 | 0.00 | 0.00 | 1.55 | 97 | 1009.6 |
| 20260506150236 | 7 | 99 | 0.0 | 0.0 | 0.00 | 0.00 | 1.55 | 97 | 1009.6 |
| 20260506145753 | 7 | 97 | 0.0 | 0.0 | 0.00 | 0.00 | 1.55 | 97 | 1009.7 |
| 20260506145248 | 7 | 96 | 0.0 | 0.0 | 0.00 | 0.00 | 1.55 | 96 | 1009.7 |
| 20260506144745 | 7 | 86 | 0.0 | 0.0 | 0.00 | 0.00 | 1.55 | 96 | 1009.7 |
| 20260506144244 | 7 | 105 | 0.0 | 0.0 | 0.00 | 0.00 | 1.55 | 96 | 1009.8 |
| 20260506143740 | 7 | 96 | 0.0 | 0.0 | 0.00 | 0.00 | 1.55 | 96 | 1009.8 |
| 20260506143236 | 7 | 93 | 0.0 | 0.0 | 0.00 | 0.00 | 1.55 | 96 | 1009.8 |
| 20260506142731 | 7 | 117 | 0.0 | 0.0 | 0.00 | 0.00 | 1.55 | 96 | 1009.9 |
| 20260506142248 | 7 | 96 | 0.0 | 0.0 | 0.00 | 0.00 | 1.55 | 94 | 1009.9 |
| 20260506141744 | 7 | 109 | 0.0 | 0.0 | 0.00 | 0.00 | 1.55 | 93 | 1009.9 |
| 20260506141244 | 8 | 101 | 0.0 | 0.0 | 0.00 | 0.00 | 1.55 | 92 | 1010.4 |
| 20260506140740 | 7 | 91 | 0.0 | 0.0 | 0.00 | 0.00 | 1.55 | 92 | 1010.4 |
| 20260506140236 | 7 | 102 | 0.0 | 0.0 | 0.00 | 0.00 | 1.55 | 92 | 1010.4 |
| 20260506135735 | 7 | 110 | 0.0 | 0.0 | 0.00 | 0.00 | 1.52 | 93 | 1010.4 |
| 20260506135234 | 7 | 115 | 0.0 | 0.0 | 0.00 | 0.00 | 1.52 | 93 | 1010.4 |
| 20260506134731 | 7 | 98 | 0.0 | 0.0 | 0.00 | 0.00 | 1.52 | 92 | 1010.4 |
| 20260506134250 | 7 | 86 | 0.0 | 0.0 | 0.00 | 0.00 | 1.52 | 93 | 1010.7 |
| 20260506133746 | 7 | 105 | 0.0 | 0.0 | 0.00 | 0.00 | 1.52 | 92 | 1010.7 |
| 20260506133242 | 7 | 89 | 0.0 | 0.0 | 0.00 | 0.00 | 1.52 | 92 | 1010.7 |
| 20260506132740 | 7 | 98 | 0.0 | 0.0 | 0.00 | 0.00 | 1.52 | 92 | 1010.7 |
| 20260506132239 | 7 | 96 | 0.0 | 0.0 | 0.00 | 0.00 | 1.52 | 93 | 1010.7 |
| 20260506131735 | 7 | 82 | 0.0 | 0.0 | 0.00 | 0.00 | 1.52 | 96 | 1010.7 |
| 20260506131251 | 6 | 83 | 0.0 | 0.0 | 0.00 | 0.00 | 1.52 | 97 | 1010.9 |
| 20260506130746 | 6 | 91 | 0.0 | 0.0 | 0.00 | 0.00 | 1.52 | 97 | 1010.9 |
| 20260506130245 | 6 | 148 | 0.0 | 0.0 | 0.00 | 0.00 | 1.52 | 97 | 1010.9 |
| 20260506125748 | 6 | 97 | 0.0 | 0.0 | 0.00 | 0.00 | 1.52 | 97 | 1010.6 |
| 20260506125244 | 6 | 124 | 0.0 | 0.0 | 0.00 | 0.00 | 1.47 | 97 | 1010.6 |
| 20260506124744 | 6 | 44 | 0.0 | 0.0 | 0.00 | 0.00 | 1.45 | 97 | 1010.6 |
| 20260506124241 | 6 | 99 | 0.0 | 0.0 | 0.00 | 0.00 | 1.45 | 97 | 1010.6 |
| 20260506123738 | 6 | 89 | 0.0 | 0.0 | 0.00 | 0.00 | 1.45 | 97 | 1010.6 |
| 20260506123234 | 6 | 139 | 0.0 | 0.0 | 0.00 | 0.00 | 1.45 | 96 | 1010.6 |
| 20260506122734 | 6 | 202 | 0.0 | 0.0 | 0.00 | 0.00 | 1.45 | 96 | 1010.4 |
| 20260506122250 | 6 | 77 | 0.0 | 0.0 | 0.00 | 0.00 | 1.45 | 95 | 1010.4 |
| 20260506121746 | 6 | 152 | 0.0 | 0.0 | 0.00 | 0.00 | 1.45 | 95 | 1010.4 |
| 20260506121243 | 6 | 122 | 0.0 | 0.0 | 0.00 | 0.00 | 1.45 | 95 | 1010.5 |
| 20260506120739 | 6 | 101 | 0.0 | 0.0 | 0.00 | 0.00 | 1.45 | 96 | 1010.5 |
| 20260506120239 | 6 | 78 | 0.0 | 0.0 | 0.00 | 0.00 | 1.45 | 97 | 1010.5 |
| 20260506115734 | 6 | 83 | 0.0 | 0.0 | 0.00 | 0.00 | 1.45 | 96 | 1010.5 |
| 20260506115234 | 6 | 75 | 0.0 | 0.0 | 0.00 | 0.00 | 1.45 | 96 | 1010.5 |
| 20260506114734 | 6 | 68 | 0.0 | 0.0 | 0.00 | 0.00 | 1.45 | 96 | 1010.5 |
| 20260506114250 | 6 | 96 | 0.0 | 0.0 | 0.00 | 0.00 | 1.45 | 95 | 1010.4 |
| 20260506113745 | 7 | 98 | 0.0 | 0.0 | 0.00 | 0.00 | 1.45 | 93 | 1010.4 |
| 20260506113243 | 7 | 114 | 0.0 | 0.0 | 0.00 | 0.00 | 1.45 | 93 | 1010.4 |
| 20260506112743 | 7 | 93 | 0.0 | 0.0 | 0.00 | 0.00 | 1.45 | 93 | 1010.6 |
| 20260506112239 | 7 | 91 | 0.0 | 0.0 | 0.00 | 0.00 | 1.45 | 88 | 1010.6 |
| 20260506111739 | 7 | 30 | 0.0 | 0.0 | 0.00 | 0.00 | 1.45 | 91 | 1010.6 |
| 20260506111236 | 7 | 80 | 0.0 | 0.0 | 0.00 | 0.00 | 1.45 | 92 | 1010.9 |
| 20260506110753 | 7 | 72 | 0.0 | 0.0 | 0.00 | 0.00 | 1.45 | 92 | 1010.9 |
| 20260506110248 | 7 | 89 | 0.0 | 0.0 | 0.00 | 0.00 | 1.45 | 91 | 1010.9 |
| 20260506105744 | 7 | 86 | 0.0 | 0.0 | 0.00 | 0.00 | 1.45 | 89 | 1011.0 |
| 20260506105244 | 7 | 103 | 0.0 | 0.0 | 0.00 | 0.00 | 1.45 | 89 | 1011.0 |
| 20260506104740 | 7 | 121 | 0.0 | 0.0 | 0.00 | 0.00 | 1.45 | 91 | 1011.0 |
| 20260506104235 | 7 | 91 | 0.0 | 0.0 | 0.00 | 0.00 | 1.45 | 91 | 1011.0 |
| 20260506103734 | 6 | 103 | 0.0 | 0.0 | 0.00 | 0.00 | 1.45 | 91 | 1011.0 |
| 20260506103235 | 6 | 76 | 0.0 | 0.0 | 0.00 | 0.00 | 1.45 | 92 | 1011.0 |
| 20260506102736 | 6 | 77 | 0.0 | 0.0 | 0.00 | 0.00 | 1.45 | 96 | 1011.1 |
| 20260506102236 | 6 | 102 | 0.0 | 0.0 | 0.00 | 0.00 | 1.45 | 97 | 1011.1 |
| 20260506101732 | 6 | 72 | 0.0 | 0.0 | 0.00 | 0.00 | 1.45 | 98 | 1011.1 |
| 20260506101253 | 6 | 76 | 0.0 | 0.0 | 0.00 | 0.00 | 1.45 | 98 | 1011.4 |
| 20260506100747 | 6 | 33 | 0.0 | 0.0 | 0.00 | 0.00 | 1.45 | 98 | 1011.4 |
| 20260506100244 | 5 | 61 | 0.0 | 0.0 | 0.00 | 0.00 | 1.45 | 98 | 1011.4 |
| 20260506095240 | 5 | 80 | 0.0 | 0.0 | 0.00 | 0.00 | 1.45 | 98 | 1011.2 |
| 20260506094740 | 5 | 56 | 0.0 | 0.0 | 0.00 | 0.00 | 1.45 | 98 | 1011.2 |
| 20260506094240 | 5 | 181 | 0.0 | 0.0 | 0.00 | 0.00 | 1.45 | 98 | 1011.1 |
| 20260506093736 | 5 | 359 | 0.0 | 0.0 | 0.00 | 0.00 | 1.42 | 98 | 1011.1 |
| 20260506093252 | 5 | 204 | 0.0 | 0.0 | 0.00 | 0.00 | 1.37 | 98 | 1011.1 |
| 20260506092747 | 5 | 70 | 0.0 | 0.0 | 0.00 | 0.00 | 1.32 | 98 | 1010.7 |
| 20260506092243 | 5 | 74 | 0.0 | 0.0 | 0.00 | 0.00 | 1.30 | 98 | 1010.7 |
| 20260506091747 | 5 | 98 | 0.0 | 0.0 | 0.00 | 0.00 | 1.27 | 98 | 1010.7 |
| 20260506091247 | 5 | 110 | 0.0 | 0.0 | 0.00 | 0.00 | 1.19 | 98 | 1010.6 |
| 20260506090742 | 5 | 191 | 0.0 | 0.0 | 0.00 | 0.00 | 1.14 | 98 | 1010.6 |
| 20260506090239 | 5 | 126 | 0.0 | 0.0 | 0.00 | 0.00 | 1.12 | 98 | 1010.6 |
| 20260506085734 | 5 | 70 | 0.0 | 0.0 | 0.00 | 0.00 | 1.09 | 98 | 1010.5 |
| 20260506085233 | 5 | 123 | 0.0 | 0.0 | 0.00 | 0.00 | 1.07 | 98 | 1010.5 |
| 20260506084730 | 5 | 123 | 0.0 | 0.0 | 0.00 | 0.00 | 0.99 | 98 | 1010.5 |
| 20260506084251 | 5 | 167 | 0.0 | 0.0 | 0.00 | 0.00 | 0.99 | 98 | 1010.5 |
| 20260506083747 | 5 | 182 | 0.0 | 0.0 | 0.00 | 0.00 | 0.99 | 98 | 1010.5 |
| 20260506083244 | 5 | 148 | 0.0 | 0.0 | 0.00 | 0.00 | 0.99 | 98 | 1010.5 |
| 20260506082740 | 5 | 132 | 0.0 | 0.0 | 0.00 | 0.00 | 0.99 | 98 | 1010.5 |
| 20260506082239 | 5 | 140 | 0.0 | 0.0 | 0.00 | 0.00 | 0.99 | 98 | 1010.5 |
| 20260506081736 | 6 | 79 | 0.0 | 0.0 | 0.00 | 0.00 | 0.99 | 98 | 1010.5 |
| 20260506081236 | 6 | 122 | 0.0 | 0.0 | 0.00 | 0.00 | 0.99 | 98 | 1010.5 |
| 20260506080741 | 6 | 127 | 0.0 | 0.0 | 0.00 | 0.00 | 0.99 | 98 | 1010.5 |
| 20260506080242 | 5 | 126 | 0.0 | 0.0 | 0.00 | 0.00 | 0.99 | 98 | 1010.5 |
| 20260506073249 | 5 | 90 | 0.0 | 0.0 | 0.00 | 0.00 | 0.99 | 98 | 1010.6 |
| 20260506072745 | 5 | 165 | 0.0 | 0.0 | 0.00 | 0.00 | 0.99 | 98 | 1010.6 |
| 20260506072244 | 5 | 104 | 0.0 | 0.0 | 0.00 | 0.00 | 0.99 | 98 | 1010.6 |
| 20260506071740 | 5 | 136 | 0.0 | 0.0 | 0.00 | 0.00 | 0.99 | 98 | 1010.6 |
| 20260506071236 | 5 | 104 | 0.0 | 0.0 | 0.00 | 0.00 | 0.99 | 98 | 1010.6 |
| 20260506070732 | 5 | 119 | 0.0 | 0.0 | 0.00 | 0.00 | 0.99 | 98 | 1010.6 |
| 20260506070251 | 5 | 88 | 0.0 | 0.0 | 0.00 | 0.00 | 0.99 | 98 | 1010.6 |
| 20260506062237 | 5 | 96 | 0.0 | 0.0 | 0.00 | 0.00 | 0.97 | 98 | 1011.0 |
| 20260506061733 | 5 | 153 | 0.0 | 0.0 | 0.00 | 0.00 | 0.97 | 98 | 1011.0 |
| 20260506061249 | 5 | 124 | 0.0 | 0.0 | 0.00 | 0.00 | 0.97 | 98 | 1011.0 |
| 20260506060745 | 5 | 124 | 0.0 | 0.0 | 0.00 | 0.00 | 0.97 | 98 | 1011.0 |
| 20260506060244 | 5 | 53 | 0.0 | 0.0 | 0.00 | 0.00 | 0.97 | 98 | 1011.0 |
| 20260506051241 | 6 | 62 | 0.0 | 0.0 | 0.00 | 0.00 | 0.71 | 98 | 1011.1 |
| 20260506050737 | 6 | 67 | 0.0 | 0.0 | 0.00 | 0.00 | 0.69 | 98 | 1011.1 |
| 20260506050236 | 6 | 85 | 0.0 | 0.0 | 0.00 | 0.00 | 0.64 | 98 | 1011.1 |
| 20260506044734 | 6 | 84 | 0.0 | 0.0 | 0.00 | 0.00 | 0.61 | 98 | 1011.5 |
| 20260506044233 | 6 | 106 | 0.0 | 0.0 | 0.00 | 0.00 | 0.61 | 98 | 1011.4 |
| 20260506043730 | 6 | 70 | 0.0 | 0.0 | 0.00 | 0.00 | 0.58 | 98 | 1011.4 |
| 20260506043248 | 6 | 91 | 0.0 | 0.0 | 0.00 | 0.00 | 0.58 | 98 | 1011.4 |
| 20260506042748 | 6 | 89 | 0.0 | 0.0 | 0.00 | 0.00 | 0.58 | 98 | 1011.2 |
| 20260506042244 | 6 | 72 | 0.0 | 0.0 | 0.00 | 0.00 | 0.58 | 98 | 1011.2 |
| 20260506041741 | 6 | 75 | 0.0 | 0.0 | 0.00 | 0.00 | 0.56 | 98 | 1011.2 |
| 20260506041242 | 6 | 117 | 0.0 | 0.0 | 0.00 | 0.00 | 0.56 | 98 | 1011.2 |
| 20260506040742 | 6 | 94 | 0.0 | 0.0 | 0.00 | 0.00 | 0.56 | 98 | 1011.2 |
| 20260506040241 | 6 | 77 | 0.0 | 0.0 | 0.00 | 0.00 | 0.56 | 98 | 1011.2 |
| 20260506035738 | 6 | 88 | 0.0 | 0.0 | 0.00 | 0.00 | 0.56 | 98 | 1011.4 |
| 20260506035237 | 6 | 102 | 0.0 | 0.0 | 0.00 | 0.00 | 0.56 | 98 | 1011.4 |
| 20260506034733 | 6 | 108 | 0.0 | 0.0 | 0.00 | 0.00 | 0.56 | 98 | 1011.4 |
| 20260506034249 | 6 | 107 | 0.0 | 0.0 | 0.00 | 0.00 | 0.56 | 98 | 1011.4 |
| 20260506033744 | 6 | 97 | 0.0 | 0.0 | 0.00 | 0.00 | 0.56 | 98 | 1011.4 |
| 20260506033240 | 6 | 98 | 0.0 | 0.0 | 0.00 | 0.00 | 0.56 | 98 | 1011.4 |
| 20260506032736 | 6 | 112 | 0.0 | 0.0 | 0.00 | 0.00 | 0.56 | 98 | 1011.5 |
| 20260506032252 | 6 | 99 | 0.0 | 0.0 | 0.00 | 0.00 | 0.56 | 98 | 1011.5 |
| 20260506031733 | 6 | 85 | 0.0 | 0.0 | 0.00 | 0.00 | 0.56 | 98 | 1011.5 |
| 20260506031252 | 6 | 96 | 0.0 | 0.0 | 0.00 | 0.00 | 0.56 | 98 | 1011.6 |
| 20260506030748 | 6 | 74 | 0.0 | 0.0 | 0.00 | 0.00 | 0.56 | 98 | 1011.6 |
| 20260506030244 | 6 | 76 | 0.0 | 0.0 | 0.00 | 0.00 | 0.56 | 98 | 1011.6 |
| 20260506025740 | 6 | 106 | 0.0 | 0.0 | 0.00 | 0.00 | 0.56 | 98 | 1012.0 |
| 20260506025239 | 6 | 93 | 0.0 | 0.0 | 0.00 | 0.00 | 0.56 | 98 | 1012.0 |
| 20260506024736 | 6 | 89 | 0.0 | 0.0 | 0.00 | 0.00 | 0.56 | 98 | 1012.0 |
| 20260506024236 | 6 | 103 | 0.0 | 0.0 | 0.00 | 0.00 | 0.53 | 98 | 1012.1 |
| 20260506023735 | 6 | 106 | 0.0 | 0.0 | 0.00 | 0.00 | 0.53 | 98 | 1012.1 |
| 20260506023232 | 6 | 84 | 0.0 | 0.0 | 0.00 | 0.00 | 0.53 | 98 | 1012.1 |
| 20260506022751 | 6 | 83 | 0.0 | 0.0 | 0.00 | 0.00 | 0.53 | 98 | 1012.1 |
| 20260506022247 | 6 | 88 | 0.0 | 0.0 | 0.00 | 0.00 | 0.53 | 98 | 1012.1 |
| 20260506021745 | 6 | 104 | 0.0 | 0.0 | 0.00 | 0.00 | 0.53 | 98 | 1012.1 |
| 20260506021245 | 6 | 77 | 0.0 | 0.0 | 0.00 | 0.00 | 0.53 | 98 | 1012.2 |
| 20260506020744 | 6 | 91 | 0.0 | 0.0 | 0.00 | 0.00 | 0.53 | 98 | 1012.2 |
| 20260506020245 | 6 | 92 | 0.0 | 0.0 | 0.00 | 0.00 | 0.53 | 98 | 1012.2 |
| 20260506015743 | 6 | 98 | 0.0 | 0.0 | 0.00 | 0.00 | 0.53 | 98 | 1012.3 |
| 20260506015240 | 6 | 88 | 0.0 | 0.0 | 0.00 | 0.00 | 0.53 | 98 | 1012.3 |
| 20260506014739 | 6 | 84 | 0.0 | 0.0 | 0.00 | 0.00 | 0.53 | 98 | 1012.3 |
| 20260506014236 | 6 | 83 | 0.0 | 0.0 | 0.00 | 0.00 | 0.53 | 98 | 1012.2 |
| 20260506013733 | 6 | 102 | 0.0 | 0.0 | 0.00 | 0.00 | 0.53 | 98 | 1012.2 |
| 20260506013251 | 6 | 86 | 0.0 | 0.0 | 0.00 | 0.00 | 0.53 | 98 | 1012.2 |
| 20260506012748 | 6 | 94 | 0.0 | 0.0 | 0.00 | 0.00 | 0.53 | 98 | 1012.2 |
| 20260506012247 | 6 | 99 | 0.0 | 0.0 | 0.00 | 0.00 | 0.53 | 98 | 1012.2 |
| 20260506011743 | 6 | 103 | 0.0 | 0.0 | 0.00 | 0.00 | 0.53 | 98 | 1012.2 |
| 20260506011239 | 6 | 83 | 0.0 | 0.0 | 0.00 | 0.00 | 0.53 | 98 | 1012.5 |
| 20260506010736 | 6 | 94 | 0.0 | 0.0 | 0.00 | 0.00 | 0.53 | 98 | 1012.5 |
| 20260506010237 | 6 | 80 | 0.0 | 0.0 | 0.00 | 0.00 | 0.51 | 98 | 1012.5 |
| 20260506005736 | 6 | 96 | 0.0 | 0.0 | 0.00 | 0.00 | 0.51 | 98 | 1012.6 |
| 20260506005236 | 6 | 91 | 0.0 | 0.0 | 0.00 | 0.00 | 0.48 | 98 | 1012.6 |
| 20260506004752 | 6 | 93 | 0.0 | 0.0 | 0.00 | 0.00 | 0.48 | 98 | 1012.6 |
| 20260506004247 | 6 | 85 | 0.0 | 0.0 | 0.00 | 0.00 | 0.43 | 98 | 1012.7 |